Terug naar catalogus

FENGYUN 1C DEB

ActiefSSO
NORAD 32210·DEBRIS·🇨🇳 China

Gelanceerd May 10, 1999 vanaf Taiyuan Satellite Launch Center

Loading…

Volgende Passages (komende 24 uur)

TLE

VerouderendSource: Space-Track

Epoch: Sep 8, 2026, 22:38 UTC

1 32210U 99025CVG 26251.94314257  .00001211  00000-0  66544-3 0  9997
2 32210  98.8485 302.2426 0071895 126.1174 234.6681 14.12265717651999

Volg FENGYUN 1C DEB in realtime met AllMySat

Download on the App Store